Gainesville, Georgia
Current Conditions -  °F | °C
As of 3:53 AM on Monday 20 Oct 2014 (Local Time) from KGVL Reporting Station
Clear Clear  
Wind Chill: 49°   Ceiling: Unl
Heat Index: 49°   Visibility: 10mi
Dew Point: 47°   Wind: 0mph
Humidity: 93%   Direction: NA
Pressure: 30.12"   Gusts: NA
Location:  34.3°N, 83.82°W
Report Text: KGVL 200753Z AUTO 00000KT 10SM CLR 09/08 A3012 RMK AO2 SLP191 T00940083
Loading
Personal Weather Stations






























Interactive Weather Map
Tropical Storm Tracking
New forecast layout! Learn more

10-Day Weather Forecast

Advertisements
Track Severe Weather on mobile